TimeCDT,TemperatureF,Dew PointF,Humidity,Sea Level PressureIn,VisibilityMPH,Wind Direction,Wind SpeedMPH,Gust SpeedMPH,PrecipitationIn,Events,Conditions,WindDirDegrees,DateUTC
12:53 AM,78.1,69.1,74,29.82,10.0,South,20.7,29.9,N/A,,Clear,180,2013-05-21 05:53:00
1:53 AM,78.1,68.0,71,29.79,10.0,South,19.6,26.5,N/A,,Clear,170,2013-05-21 06:53:00
2:53 AM,77.0,69.1,76,29.74,10.0,South,19.6,36.8,N/A,,Clear,180,2013-05-21 07:53:00
3:53 AM,75.9,69.1,79,29.75,10.0,South,17.3,27.6,N/A,,Clear,180,2013-05-21 08:53:00
4:53 AM,75.9,69.1,79,29.76,10.0,South,17.3,25.3,N/A,,Clear,180,2013-05-21 09:53:00
5:53 AM,75.0,70.0,84,29.78,10.0,South,13.8,-,N/A,,Clear,180,2013-05-21 10:53:00
6:53 AM,75.0,70.0,84,29.79,10.0,South,11.5,-,N/A,,Partly Cloudy,180,2013-05-21 11:53:00
7:18 AM,75.2,69.8,83,29.83,10.0,South,10.4,18.4,N/A,,Mostly Cloudy,170,2013-05-21 12:18:00
7:38 AM,77.0,71.6,83,29.83,10.0,South,11.5,-,N/A,,Overcast,180,2013-05-21 12:38:00
7:53 AM,77.0,70.0,79,29.81,10.0,South,15.0,20.7,N/A,,Overcast,170,2013-05-21 12:53:00
8:53 AM,79.0,70.0,74,29.79,10.0,South,17.3,26.5,N/A,,Overcast,170,2013-05-21 13:53:00
9:53 AM,80.1,70.0,71,29.79,10.0,South,19.6,26.5,N/A,,Overcast,190,2013-05-21 14:53:00
10:21 AM,82.4,69.8,66,29.82,10.0,South,20.7,28.8,N/A,,Scattered Clouds,190,2013-05-21 15:21:00
10:53 AM,81.0,69.1,67,29.81,10.0,South,17.3,27.6,N/A,,Mostly Cloudy,180,2013-05-21 15:53:00
11:53 AM,82.9,70.0,65,29.82,10.0,South,13.8,20.7,N/A,,Overcast,180,2013-05-21 16:53:00
12:53 PM,84.0,69.1,61,29.81,10.0,South,12.7,-,N/A,,Overcast,190,2013-05-21 17:53:00
1:53 PM,86.0,70.0,59,29.79,10.0,South,16.1,-,N/A,,Mostly Cloudy,170,2013-05-21 18:53:00
2:53 PM,87.1,70.0,57,29.75,10.0,SSW,19.6,26.5,N/A,,Clear,200,2013-05-21 19:53:00
3:53 PM,87.1,69.1,55,29.69,10.0,South,17.3,24.2,N/A,,Partly Cloudy,180,2013-05-21 20:53:00
4:53 PM,84.9,69.1,59,29.71,10.0,SSW,8.1,-,N/A,,Overcast,200,2013-05-21 21:53:00
5:25 PM,71.6,59.0,64,29.78,9.0,North,25.3,44.9,N/A,,Squalls,10,2013-05-21 22:25:00
5:37 PM,68.0,57.2,68,29.80,10.0,NNE,21.9,34.5,0.00,,Overcast,20,2013-05-21 22:37:00
5:53 PM,66.0,59.0,78,29.81,10.0,NNE,21.9,39.1,0.00,Rain-Thunderstorm,Light Thunderstorms and Rain,20,2013-05-21 22:53:00
6:00 PM,64.4,60.8,88,29.83,9.0,NNE,23.0,29.9,0.03,Rain-Thunderstorm,Light Thunderstorms and Rain,20,2013-05-21 23:00:00
6:06 PM,62.6,60.8,94,29.84,2.5,North,18.4,29.9,0.21,Rain-Thunderstorm,Heavy Thunderstorms and Rain,10,2013-05-21 23:06:00
6:09 PM,62.6,60.8,94,29.80,1.5,North,19.6,24.2,0.34,Rain-Thunderstorm,Heavy Thunderstorms and Rain,10,2013-05-21 23:09:00
6:31 PM,66.2,62.6,88,29.80,2.0,WSW,16.1,24.2,1.02,Rain-Thunderstorm,Heavy Thunderstorms and Rain,240,2013-05-21 23:31:00
6:35 PM,66.2,62.6,88,29.81,3.0,SSW,24.2,36.8,1.07,Rain-Thunderstorm,Heavy Thunderstorms and Rain,210,2013-05-21 23:35:00
6:39 PM,66.2,62.6,88,29.81,2.5,SSW,18.4,36.8,1.15,Rain-Thunderstorm,Heavy Thunderstorms and Rain,210,2013-05-21 23:39:00
6:47 PM,66.2,64.4,94,29.79,3.0,South,19.6,28.8,1.27,Rain-Thunderstorm,Heavy Thunderstorms and Rain,190,2013-05-21 23:47:00
6:53 PM,66.0,63.0,90,29.75,5.0,SSW,13.8,28.8,1.31,Rain-Thunderstorm,Heavy Thunderstorms and Rain,210,2013-05-21 23:53:00
7:53 PM,64.9,62.1,90,29.78,8.0,Calm,Calm,-,0.03,Rain-Thunderstorm,Rain,0,2013-05-22 00:53:00
8:18 PM,64.4,62.6,94,29.81,2.0,ESE,3.5,-,0.25,Rain-Thunderstorm,Heavy Thunderstorms and Rain,120,2013-05-22 01:18:00
8:30 PM,64.4,62.6,94,29.82,6.0,East,5.8,-,0.32,Rain-Thunderstorm,Heavy Thunderstorms and Rain,100,2013-05-22 01:30:00
8:39 PM,64.4,62.6,94,29.82,6.0,Calm,Calm,-,0.36,Rain-Thunderstorm,Heavy Thunderstorms and Rain,0,2013-05-22 01:39:00
8:49 PM,64.4,62.6,94,29.79,6.0,ESE,10.4,-,0.41,Rain-Thunderstorm,Heavy Thunderstorms and Rain,110,2013-05-22 01:49:00
8:53 PM,64.9,63.0,93,29.77,6.0,ESE,5.8,-,0.45,Rain-Thunderstorm,Light Thunderstorms and Rain,110,2013-05-22 01:53:00
9:14 PM,66.2,64.4,94,29.85,10.0,South,13.8,17.3,0.04,Rain-Thunderstorm,Light Thunderstorms and Rain,190,2013-05-22 02:14:00
9:37 PM,66.2,64.4,94,29.83,10.0,SSE,10.4,-,0.04,Thunderstorm,Overcast,160,2013-05-22 02:37:00
9:53 PM,66.9,64.0,90,29.83,10.0,SSW,10.4,-,0.04,,Overcast,210,2013-05-22 02:53:00
10:36 PM,66.2,64.4,94,29.85,10.0,SW,5.8,-,0.00,,Overcast,230,2013-05-22 03:36:00
10:53 PM,66.9,64.9,93,29.81,10.0,West,4.6,-,0.00,,Mostly Cloudy,260,2013-05-22 03:53:00
11:10 PM,66.2,64.4,94,29.85,10.0,SSW,6.9,-,N/A,,Mostly Cloudy,210,2013-05-22 04:10:00
11:53 PM,66.9,64.9,93,29.83,10.0,WSW,9.2,-,N/A,,Overcast,240,2013-05-22 04:53:00